Tracking 31027 objects as of 19-Jul-2025
HD Live streaming from Space Station
objects crossing your sky now

STARLINK-32043

Track STARLINK-32043 now!
10-day predictions
STARLINK-32043 is classified as:


NORAD ID: 60135
Int'l Code: 2024-120A
Perigee: 481.6 km
Apogee: 483.1 km
Inclination: 53.2 °
Period: 94.1 minutes
Semi major axis: 6853 km
RCS: Unknown
Launch date: June 27, 2024
Source: United States (US)
Launch site: AIR FORCE EASTERN TEST RANGE (AFETR)
Your satellite tracking list
STARLINK-31009
Track 1 satellite(s)




NASA's NSSDC Master Catalog

Two Line Element Set (TLE):
1 60135U 24120A   25199.64382537  .00000165  00000-0  17701-4 0  9990
2 60135  53.1612 326.9802 0001118  82.3105 277.8023 15.30191211 60543
Source of the keplerian elements: AFSPC